Theta_e
345 327 321 318 317 315 313 312 310 310 310 311 311 311 312 314 316 318 317 316 317 318 318 319 319 321 323 328 329 329 329 326 328 339 344 344 342 343 343 345 345 349 343
345 328 322 317 316 315 314 312 310 311 313 313 313 313 313 314 315 319 324 325 324 327 328 327 328 329 329 330 329 329 330 331 330 327 336 342 344 342 343 344 344 348 346
345 331 322 318 316 316 315 313 311 312 314 315 315 315 316 316 317 318 322 327 330 331 332 332 333 333 334 333 332 331 330 331 332 331 330 329 342 346 342 341 343 345 347
345 337 325 319 316 317 316 314 313 313 315 317 317 318 319 321 322 323 326 328 333 334 334 334 335 335 335 336 336 334 333 331 332 332 330 324 326 341 345 343 341 343 346
345 341 332 321 317 317 317 316 314 314 316 318 319 320 321 324 326 327 329 334 336 337 337 337 336 336 335 337 337 336 336 334 333 331 327 325 323 325 342 343 342 342 343
342 346 341 326 319 318 319 317 315 315 316 318 320 321 323 325 328 330 332 335 337 339 339 339 339 337 336 337 338 337 338 338 336 333 330 324 325 328 339 341 342 344 344
336 343 343 340 320 318 320 319 316 316 317 318 320 322 324 325 327 331 334 338 340 339 339 339 339 338 335 336 337 336 334 334 336 336 334 329 325 329 330 332 339 341 344
336 337 341 340 337 320 320 321 319 317 317 319 321 323 324 325 325 330 336 340 338 338 339 338 338 337 336 336 334 336 335 335 333 335 336 332 332 330 331 330 330 339 342
336 337 339 340 339 335 321 322 322 319 318 320 321 323 325 325 324 331 336 337 336 332 331 332 332 334 334 335 334 333 335 336 333 333 334 336 333 329 331 329 329 335 341
337 338 338 338 338 338 336 325 324 322 319 320 322 324 325 326 324 329 328 328 327 328 330 328 326 330 333 333 333 333 333 335 334 334 332 333 334 333 330 329 325 335 340
330 336 342 343 346 345 345 342 334 325 323 322 324 326 327 328 333 335 337 336 334 332 330 328 325 324 327 331 331 331 330 331 331 333 332 331 334 332 330 329 327 329 340
330 330 338 342 347 349 347 343 340 335 332 327 329 332 334 335 337 335 335 335 334 331 329 325 322 321 330 329 329 330 330 330 329 331 332 331 333 333 331 331 328 326 339
329 330 332 338 340 347 347 343 342 341 341 338 335 338 339 340 338 335 334 334 333 332 332 332 331 329 331 331 330 332 332 333 332 330 330 333 333 333 332 331 323 322 338
329 330 333 339 339 343 346 343 345 345 342 340 339 340 339 338 335 333 334 334 335 334 332 332 332 333 332 332 330 331 331 333 331 331 331 333 331 332 331 328 322 325 336
329 329 332 341 339 340 344 343 344 346 343 342 342 341 340 338 335 337 337 336 335 334 332 331 329 329 331 328 328 328 329 330 332 333 331 333 331 331 331 329 325 329 336
329 329 334 343 339 340 342 343 341 343 344 342 341 340 338 336 336 337 336 335 334 332 331 332 332 331 330 330 330 330 329 330 329 332 333 332 330 329 330 329 327 332 335
330 330 334 339 340 343 346 342 347 343 342 340 338 336 335 334 336 337 336 336 335 333 331 331 332 332 331 329 330 329 329 329 329 332 330 333 331 330 328 326 321 325 335
331 332 333 336 344 346 350 346 344 344 341 338 336 334 333 337 337 337 337 335 333 335 333 331 331 332 331 331 330 329 328 329 329 330 330 332 331 332 328 321 316 318 329
331 331 335 337 348 348 350 349 345 345 340 337 335 333 334 336 337 337 336 334 336 334 332 332 333 330 331 330 329 328 327 329 329 330 331 330 329 331 331 330 318 320 324
332 333 336 340 344 350 350 348 347 344 339 335 333 333 334 336 336 335 335 335 335 334 333 332 332 330 331 329 329 329 330 330 331 330 330 329 331 327 328 333 333 326 325
335 336 338 342 344 351 350 349 347 343 337 335 333 333 334 335 335 335 334 335 334 334 332 332 331 329 328 329 328 329 330 329 330 330 330 329 329 328 328 331 332 328 324
337 339 343 345 346 350 349 347 344 339 335 335 333 333 334 334 334 334 335 334 334 333 332 331 330 330 329 329 329 329 331 331 329 330 329 330 329 329 330 330 333 334 334
340 341 342 342 345 348 346 343 339 335 335 334 334 334 334 334 333 332 335 333 333 331 332 330 329 329 330 330 328 329 331 332 329 329 331 330 330 330 333 333 332 333 335
341 340 341 344 346 345 341 339 336 335 335 334 333 333 335 336 334 333 331 331 332 332 332 331 330 329 329 330 329 329 328 329 331 331 330 330 331 330 330 332 332 333 335
340 341 342 345 344 342 337 335 336 336 334 333 332 333 333 335 334 334 333 333 332 332 331 330 330 329 329 329 330 330 330 327 329 329 330 331 330 330 331 331 332 333 334
340 341 343 342 342 337 338 336 334 333 335 334 332 335 334 335 336 334 333 331 331 331 332 331 330 329 329 328 329 329 331 330 330 328 324 331 332 332 333 333 333 334 336
Wind_Speed
16 28 27 25 22 19 17 15 14 12 10 8 7 5 3 3 4 3 3 3 2 2 1 0 1 3 3 2 3 4 4 6 7 7 8 7 6 4 4 4 4 6 6
22 27 27 25 24 21 19 17 15 13 11 9 7 6 5 4 3 3 3 3 2 2 1 0 2 3 3 4 4 4 4 5 7 8 8 9 7 8 7 7 5 5 9
22 26 28 26 25 23 20 18 17 14 12 9 7 5 5 5 4 3 3 3 3 3 3 2 3 5 5 4 5 5 5 6 7 9 10 10 8 12 11 11 8 8 9
21 23 29 28 27 24 22 20 18 16 13 11 8 6 5 4 4 4 4 4 5 5 5 5 5 6 7 7 6 6 7 7 8 9 10 10 13 14 13 12 11 10 11
17 19 27 30 28 27 24 21 20 17 15 12 9 7 6 5 5 5 5 6 7 8 9 8 8 9 9 10 9 7 7 8 9 10 11 11 13 14 14 8 12 13 13
18 18 24 29 30 29 25 23 21 19 16 14 11 8 7 6 7 8 8 8 9 10 11 12 12 11 12 12 12 11 10 9 9 10 12 11 12 9 5 5 8 11 12
21 22 22 25 30 29 27 24 22 20 17 15 12 10 9 7 8 9 10 11 11 12 13 13 14 15 15 14 10 11 12 11 11 12 15 14 14 15 9 8 7 12 13
9 23 21 20 25 30 28 26 23 21 18 16 14 11 9 8 8 9 11 14 13 13 12 12 12 12 13 14 16 13 12 12 11 13 14 13 13 14 9 9 9 9 12
12 23 25 22 22 26 28 28 26 23 20 19 15 13 11 10 9 11 13 14 15 15 14 15 15 15 15 14 14 15 14 12 13 13 15 16 18 15 12 12 12 10 11
21 21 27 24 23 25 30 30 28 25 22 20 17 15 13 13 13 13 15 18 17 14 14 13 14 15 15 16 17 17 17 14 16 15 18 18 9 20 17 12 8 8 9
16 20 30 27 23 22 24 26 30 28 25 22 19 18 16 15 11 12 19 16 13 14 16 17 15 15 15 15 17 20 20 21 16 17 17 17 13 12 11 9 7 9 8
20 19 29 34 31 26 24 25 26 29 28 26 22 19 16 14 13 13 6 12 17 18 16 15 14 13 14 13 15 18 19 19 20 21 21 20 19 16 11 8 8 12 8
19 23 14 33 33 32 28 27 30 27 25 25 23 21 19 16 15 15 17 20 20 17 14 12 13 12 11 13 15 7 15 18 18 17 21 19 18 16 13 9 11 12 9
19 17 20 33 35 34 30 29 29 28 28 26 27 25 23 19 17 16 14 12 9 13 13 8 10 10 12 9 11 11 11 18 19 20 19 18 19 16 10 10 11 12 11
14 18 21 33 37 36 32 29 30 28 29 27 26 28 24 21 17 16 16 12 11 6 9 13 15 14 11 14 14 17 17 16 14 15 7 18 17 14 12 11 13 13 12
13 16 15 21 33 38 38 31 30 29 26 27 24 22 24 21 17 14 14 15 15 17 17 12 11 12 13 12 14 15 16 15 20 12 8 15 17 15 12 13 15 15 14
13 16 14 12 27 36 35 39 19 24 22 24 18 19 20 21 18 13 14 11 13 15 18 16 15 13 15 15 19 17 14 15 18 16 13 11 12 11 11 16 18 16 16
17 13 18 17 29 33 27 28 26 21 25 17 20 17 18 16 15 13 14 15 15 14 14 17 17 16 14 15 15 14 12 15 17 15 14 15 14 12 18 16 19 18 18
21 18 17 20 26 31 26 22 26 20 19 21 17 18 19 18 16 16 16 16 14 15 16 16 15 16 14 16 15 8 14 11 12 16 15 22 19 14 19 16 18 20 20
21 16 20 19 21 31 26 22 21 19 17 19 16 15 15 16 15 15 15 17 15 14 14 16 16 15 14 15 14 8 10 11 12 13 19 15 15 21 14 13 18 18 22
8 6 9 15 19 28 23 22 19 18 17 16 17 16 14 12 11 10 16 14 16 16 18 16 15 15 15 10 6 7 9 12 17 14 18 18 20 20 17 15 17 20 23
10 7 9 16 22 23 21 21 20 18 18 19 17 16 16 12 12 14 12 11 12 14 18 16 15 14 14 12 7 5 2 7 15 18 21 21 22 21 24 19 18 17 22
13 12 12 14 18 21 18 20 16 20 16 19 13 9 14 13 11 11 11 11 14 14 17 13 13 14 11 11 15 6 3 4 4 15 21 20 20 15 15 13 17 14 10
15 14 14 16 21 20 20 19 16 14 8 11 16 11 8 8 5 4 7 10 10 8 8 9 10 15 13 10 10 21 19 7 3 3 11 16 8 16 15 14 17 15 12
20 18 18 19 19 19 21 18 16 14 15 7 4 4 2 1 2 5 8 7 7 8 8 9 9 11 13 14 16 11 18 21 14 3 4 4 6 7 9 12 15 15 16
20 20 20 20 18 20 14 17 17 12 4 6 6 5 1 2 5 6 7 7 5 6 6 7 8 9 11 13 13 15 13 6 4 6 5 3 6 3 3 3 4 9 17
Wind_Direction
149 167 170 168 170 170 169 165 164 168 160 156 153 149 143 133 133 137 134 134 128 120 119 5 323 313 306 318 319 317 313 285 275 272 272 269 271 269 245 203 200 158 177
168 170 171 172 174 174 174 172 170 173 165 161 160 160 168 171 174 171 161 160 159 149 140 310 306 294 294 295 291 292 297 298 290 279 271 272 264 258 242 233 220 204 191
165 169 171 177 177 177 180 177 176 178 172 173 172 177 184 182 183 201 212 206 201 204 217 232 263 282 276 272 276 277 276 284 288 288 279 262 256 258 243 231 219 212 209
168 175 175 181 181 182 184 183 182 183 180 184 186 190 199 202 206 219 239 238 233 239 249 259 261 260 264 264 261 268 270 270 273 281 285 274 266 253 245 244 223 220 215
158 183 181 183 186 187 187 189 188 187 187 192 196 203 215 229 244 248 257 255 251 253 260 262 266 268 263 255 256 258 265 269 276 277 278 274 270 281 233 240 226 220 213
160 175 192 192 190 190 191 193 194 193 192 198 202 213 221 237 253 262 262 259 254 261 262 267 264 265 263 264 256 258 264 266 272 280 274 273 261 254 208 241 233 217 217
175 178 197 206 198 195 197 197 199 200 198 202 206 213 224 243 261 265 264 258 259 266 269 268 270 271 267 259 259 257 265 264 265 268 272 268 263 239 234 254 269 230 222
227 174 203 209 210 205 202 203 204 205 205 208 210 217 229 246 260 261 264 265 259 268 269 270 268 269 267 263 256 249 243 252 260 266 269 274 283 238 232 256 259 249 224
217 179 187 190 208 221 215 209 209 209 210 215 214 219 235 248 263 264 268 264 262 264 266 269 269 265 258 258 255 246 248 253 257 255 260 262 252 242 227 238 259 246 225
202 190 181 188 197 211 220 218 214 214 216 219 220 221 232 244 258 276 277 268 268 261 260 264 271 266 258 249 247 247 247 248 250 251 259 263 271 224 215 221 246 231 222
292 214 175 185 194 201 208 219 217 215 219 222 223 225 229 239 251 267 264 255 249 251 265 271 267 263 259 255 248 246 246 247 242 244 246 252 227 210 203 205 223 221 225
281 285 191 181 186 190 191 209 222 216 215 216 219 224 229 231 233 241 235 236 259 269 276 269 264 261 253 255 255 257 232 240 232 239 240 242 225 211 207 218 230 209 217
297 299 254 187 186 185 184 198 212 207 206 214 215 215 218 223 230 237 244 250 248 248 252 260 249 249 240 249 257 276 230 228 237 237 240 229 213 203 210 221 218 208 217
294 294 279 190 185 186 187 192 196 197 201 204 211 210 210 215 227 235 244 254 247 230 238 242 249 250 238 254 258 272 265 238 245 256 247 210 210 204 209 214 216 208 210
294 293 278 186 189 188 188 194 197 197 200 202 207 205 202 217 219 227 232 241 241 272 231 251 259 253 252 271 268 262 264 266 259 243 280 219 212 218 217 227 218 208 210
284 272 266 190 198 194 193 193 207 202 200 201 198 194 207 210 220 226 239 245 240 250 256 268 255 250 252 261 260 251 256 266 255 252 221 218 215 217 229 231 211 207 210
285 258 242 205 208 195 193 195 201 203 199 196 191 201 209 208 215 222 239 251 244 247 246 253 256 248 256 249 260 244 240 247 248 245 241 221 219 232 245 234 212 209 208
274 246 232 214 197 194 188 191 202 205 202 195 196 208 202 203 213 228 240 248 254 242 254 250 249 250 248 253 260 250 248 245 243 247 242 219 227 239 229 227 218 213 209
262 227 218 208 186 186 182 185 198 203 198 203 200 202 206 213 221 231 239 252 261 262 255 242 241 246 251 251 259 255 248 242 242 236 229 226 218 239 228 225 214 214 212
261 222 218 203 185 178 174 177 193 199 193 203 214 207 211 205 221 239 242 254 255 258 252 240 236 241 246 250 252 242 235 239 232 218 225 227 228 236 238 231 218 213 213
166 183 194 180 173 162 167 174 185 193 186 214 209 209 212 217 234 253 263 256 263 257 249 240 244 245 250 241 240 245 248 242 237 230 223 227 218 223 220 228 205 209 211
149 157 155 162 163 167 167 172 186 189 189 210 211 213 212 223 240 262 253 258 257 259 250 242 231 239 236 232 210 210 228 242 240 232 227 230 226 227 212 211 213 221 217
140 151 164 169 171 165 169 172 185 189 195 198 202 180 205 217 239 257 269 275 266 263 260 257 234 234 231 239 225 182 196 223 174 222 227 231 236 215 193 205 222 236 209
139 149 163 165 158 164 163 178 171 171 189 193 212 194 164 192 229 286 269 269 268 259 256 246 235 231 229 231 233 226 239 249 176 201 220 226 210 211 219 212 224 231 220
138 144 152 151 157 165 168 162 169 186 198 164 174 151 226 164 244 261 264 262 254 242 245 243 240 236 229 232 226 228 229 248 246 253 171 186 214 228 215 216 221 219 217
138 141 147 153 164 156 163 165 174 210 95 138 161 143 176 214 243 243 246 243 236 242 239 244 235 230 230 230 235 226 228 221 251 83 239 179 136 128 120 208 192 198 193